This is the latest recevied weather packets stored in our database for station/object SP4MAZ-13. If no packets are shown the sender has not sent any weather packets the latest 10 day(s).
| Time | Temp. | Humidity | Pressure | Rain* | Wind** | Luminosity | Snow |
|---|---|---|---|---|---|---|---|
| 1777203767 | 6.67° C | 56% | 2147.4 hPa | - | - | - | - |
| 1777203464 | 5.56° C | 59% | 2147.4 hPa | - | - | - | - |
| 1777203161 | 5° C | 63% | 2147.4 hPa | - | - | - | - |
| 1777202859 | 5° C | 67% | 2147.4 hPa | - | - | - | - |
| 1777202558 | 4.44° C | 73% | 2147.4 hPa | - | - | - | - |
| 1777202257 | 3.89° C | 66% | 2147.4 hPa | - | - | - | - |
| 1777201953 | 3.89° C | 65% | 2147.4 hPa | - | - | - | - |
| 1777201651 | 3.89° C | 67% | 2147.4 hPa | - | - | - | - |
| 1777201347 | 5.56° C | 54% | 2147.4 hPa | - | - | - | - |
| 1777201044 | 5.56° C | 46% | 2147.4 hPa | - | - | - | - |
| 1777200742 | 5.56° C | 45% | 2147.4 hPa | - | - | - | - |
| 1777200441 | 6.11° C | 42% | 2147.4 hPa | - | - | - | - |
| 1777200138 | 6.67° C | 46% | 2147.4 hPa | - | - | - | - |
| 1777199834 | 6.67° C | 47% | 2147.4 hPa | - | - | - | - |
| 1777199530 | 6.11° C | 41% | 2147.4 hPa | - | - | - | - |
| 1777199227 | 6.11° C | 46% | 2147.4 hPa | - | - | - | - |
| 1777198923 | 6.11° C | 47% | 2147.4 hPa | - | - | - | - |
| 1777198622 | 6.67° C | 42% | 2147.4 hPa | - | - | - | - |
| 1777198318 | 6.11° C | 51% | 2147.4 hPa | - | - | - | - |
| 1777198015 | 6.11° C | 46% | 2147.4 hPa | - | - | - | - |
| 1777197711 | 5.56° C | 50% | 2147.4 hPa | - | - | - | - |
| 1777197408 | 6.67° C | 50% | 2147.4 hPa | - | - | - | - |
| 1777197104 | 6.11° C | 40% | 2147.4 hPa | - | - | - | - |
| 1777196804 | 5.56° C | 42% | 2147.4 hPa | - | - | - | - |
| 1777196500 | 5.56° C | 45% | 2147.4 hPa | - | - | - | - |
* Rain since midnight (hover to see other rain measurements)
** Current wind speed in m/s (hover to see current wind gust speed)